Location: Gazon
(48.1318°N, 1.2708°W)
Time: 23:18:15
(UTC+00:00)

Cosmos 1092 Rocket - Pass Details

Date: 18 September 2020
Orbit: 954 x 995 km, 82.9° (Epoch: 25 October)

Event Time Altitude Azimuth Distance (km) Brightness Sun altitude
Rises 19:48:27 0° 354° (N) 3,645 7.4 -16.7°
Reaches altitude 10° 19:51:02 10° 359° (N) 2,697 6.6 -17.1°
Maximum altitude 19:57:03 53° 76° (ENE) 1,171 4.1 -18.1°
Enters shadow 20:00:16 27° 140° (SE) 1,756 4.8 -18.6°
